Weather History for Punta Gorda, FL

Change the Weather History Date:

Sunday, November 11, 2012

  Actual Average Record
Temperature  
Mean Temperature 70 °F -  
Max Temperature 84 °F 78 °F 87 °F (2013)
Min Temperature 55 °F 58 °F 46 °F (1996)
Cooling Degree Days 4    
Growing Degree Days 20 (Base 50)    
Moisture  
Dew Point 55 °F    
Average Humidity 68    
Maximum Humidity 90    
Minimum Humidity 37    
Precipitation  
Precipitation 0.00 in - - ()
Sea Level Pressure  
Sea Level Pressure 30.25 in    
Wind  
Wind Speed 8 mph (ENE)    
Max Wind Speed 16 mph    
Max Gust Speed 22 mph    
Visibility 10 miles    
Events      
Averages and records for this station are not official NWS values.
T = Trace of Precipitation, MM = Missing Value Source: NWS Daily Summary

Daily Weather History Graph

Daily Weather History Graph

Search for Another Location

Airport:

Trip Planner

Search our weather history database for the weather conditions in past years. The results will help you decide how hot, cold, wet, or windy it might be!

Date:

Astronomy

Nov. 11, 2012 Rise Set
Actual Time 6:45 AM EST 5:38 PM EST
Civil Twilight 6:20 AM EST 6:03 PM EST
Nautical Twilight 5:52 AM EST 6:30 PM EST
Astronomical Twilight 5:25 AM EST 6:58 PM EST
Moon 4:09 AM EST (11/11) 3:52 PM EST (11/11)
Length of Visible Light 11h 42m
Length of Day
10h 53m
Waning Crescent, 7% of the Moon is Illuminated
Nov 11
Waning Crescent
Nov 13
New
Nov 20
First Quarter
Nov 28
Full
Dec 6
Last Quarter

Hourly Weather History & Observations

Time (EST) Temp. Heat Index Dew Point Humidity Pressure Visibility Wind Dir Wind Speed Gust Speed Precip Events Conditions
12:53 AM 57.0 °F - 54.0 °F 89% 30.26 in 10.0 mi NE 5.8 mph - N/A   Clear
1:53 AM 55.9 °F - 53.1 °F 90% 30.25 in 10.0 mi NE 5.8 mph - N/A   Clear
2:53 AM 55.9 °F - 53.1 °F 90% 30.25 in 10.0 mi NNE 4.6 mph - N/A   Clear
3:53 AM 55.0 °F - 52.0 °F 89% 30.24 in 10.0 mi NE 6.9 mph - N/A   Clear
4:53 AM 57.0 °F - 53.1 °F 87% 30.24 in 10.0 mi ENE 8.1 mph - N/A   Clear
5:53 AM 55.9 °F - 53.1 °F 90% 30.25 in 10.0 mi ENE 5.8 mph - N/A   Clear
6:53 AM 55.9 °F - 53.1 °F 90% 30.26 in 10.0 mi NE 4.6 mph - N/A   Clear
7:53 AM 62.1 °F - 57.0 °F 84% 30.27 in 10.0 mi ENE 4.6 mph - N/A   Clear
9:53 AM 75.9 °F - 57.9 °F 54% 30.29 in 10.0 mi East 10.4 mph - N/A   Clear
10:53 AM 80.1 °F 80.1 °F 55.0 °F 42% 30.28 in 10.0 mi East 13.8 mph 20.7 mph N/A   Clear
11:53 AM 82.0 °F 81.4 °F 55.0 °F 39% 30.26 in 10.0 mi East 15.0 mph - N/A   Scattered Clouds
12:53 PM 82.9 °F 81.9 °F 54.0 °F 37% 30.23 in 10.0 mi East 13.8 mph - N/A   Partly Cloudy
1:53 PM 84.0 °F 83.0 °F 55.9 °F 38% 30.21 in 10.0 mi East 15.0 mph 21.9 mph N/A   Scattered Clouds
2:53 PM 82.9 °F 82.0 °F 55.0 °F 38% 30.21 in 10.0 mi East 16.1 mph - N/A   Clear
3:53 PM 82.0 °F 81.3 °F 54.0 °F 38% 30.21 in 10.0 mi East 12.7 mph 21.9 mph N/A   Clear
4:53 PM 79.0 °F - 52.0 °F 39% 30.21 in 10.0 mi East 13.8 mph 19.6 mph N/A   Clear
5:53 PM 73.0 °F - 53.1 °F 49% 30.22 in 10.0 mi East 8.1 mph - N/A   Clear
6:53 PM 70.0 °F - 55.0 °F 59% 30.23 in 10.0 mi East 6.9 mph - N/A   Clear
7:53 PM 66.9 °F - 55.9 °F 68% 30.25 in 10.0 mi ENE 5.8 mph - N/A   Clear
8:53 PM 64.9 °F - 57.9 °F 78% 30.27 in 10.0 mi ENE 5.8 mph - N/A   Clear
9:53 PM 63.0 °F - 59.0 °F 87% 30.27 in 10.0 mi East 5.8 mph - N/A   Clear
10:53 PM 62.1 °F - 59.0 °F 90% 30.26 in 10.0 mi ENE 5.8 mph - N/A   Clear
11:53 PM 62.1 °F - 59.0 °F 90% 30.25 in 10.0 mi ENE 5.8 mph - N/A   Clear